Temp
72 67 65 56 50 52 45 39 44 48 59 66 66 64 66 64 67 68 71 68 70 72 73 72 71 70 71 71 71 72 73 74
70 70 66 58 61 49 45 40 38 46 48 51 61 59 65 66 65 67 68 69 70 72 72 71 71 71 72 71 70 70 72 72
62 57 53 57 53 48 46 42 41 38 46 61 59 61 62 64 63 64 65 66 67 72 68 70 71 70 69 68 67 67 68 69
52 62 62 56 50 47 45 41 40 42 44 64 63 64 65 65 66 65 65 65 66 66 66 66 66 67 66 67 66 65 66 65
50 55 59 56 56 46 45 43 41 40 43 61 59 62 63 62 61 61 63 63 63 64 63 65 65 65 66 66 66 65 64 64
44 46 51 51 57 54 47 43 40 41 47 52 54 55 58 60 61 62 62 62 61 61 61 63 64 64 65 66 66 64 63 62
47 53 54 53 56 55 48 47 44 46 46 49 52 54 56 60 61 59 59 60 59 59 60 61 62 64 65 64 64 64 62 61
45 54 56 54 55 55 53 52 50 50 47 53 55 55 54 56 56 55 56 58 59 60 61 61 61 62 65 66 67 68 62 62
39 48 51 46 51 51 51 53 52 46 48 53 52 55 52 51 53 53 54 55 55 56 56 57 58 61 61 63 65 64 65 64
39 42 35 47 56 57 53 54 54 52 53 54 52 53 51 51 49 51 51 52 52 52 53 54 56 58 56 58 59 60 60 60
40 36 43 51 54 53 49 47 55 52 53 55 56 54 49 51 51 49 48 49 49 51 51 52 53 56 56 54 55 56 57 58
39 37 36 47 59 63 57 41 55 54 52 51 50 44 46 47 49 48 48 49 49 50 53 51 52 55 53 53 53 51 54 55
41 39 45 54 61 62 43 45 53 53 51 49 45 47 46 47 47 48 48 48 50 49 49 50 52 52 48 50 51 54 54 52
39 36 38 56 56 50 50 48 52 51 49 47 46 46 46 47 46 47 47 48 49 47 47 50 51 50 51 51 53 54 53 53
45 44 50 50 52 52 52 49 49 48 48 47 45 44 45 45 45 46 47 46 48 46 47 50 50 51 50 51 54 54 53 53
46 47 49 52 52 53 52 51 51 50 47 46 45 45 44 44 44 44 45 46 47 47 49 48 52 53 51 52 54 53 51 52
45 46 49 53 53 54 52 52 51 49 48 46 45 44 43 43 43 44 45 46 46 47 48 50 52 52 51 52 52 51 52 52
46 51 50 51 55 53 51 50 49 47 47 47 45 44 44 43 43 44 45 46 46 48 50 51 51 51 52 53 52 51 51 51
52 51 52 52 55 54 52 50 50 48 48 46 46 45 44 43 44 46 48 49 47 49 51 50 51 51 52 53 52 52 51 51
MSLP
1007.31 1007.45 1008.28 1009.66 1010.95 1012.08 1013.70 1015.26 1015.66 1016.00 1015.16 1013.91 1013.73 1013.80 1013.60 1014.00 1014.45 1014.48 1014.51 1014.53 1015.03 1014.94 1015.10 1015.48 1015.86 1016.16 1016.14 1016.36 1016.62 1016.66 1016.43 1016.38
1008.30 1008.14 1008.78 1009.44 1011.01 1012.62 1014.20 1015.88 1017.35 1017.24 1016.36 1015.89 1015.18 1015.07 1014.73 1015.07 1015.10 1015.23 1015.27 1015.21 1015.23 1015.29 1015.75 1015.97 1016.23 1016.23 1016.23 1016.59 1016.72 1016.68 1016.47 1016.45
1009.74 1010.24 1010.55 1010.66 1011.68 1013.45 1015.08 1016.37 1017.10 1018.07 1017.72 1016.57 1016.44 1016.06 1015.91 1016.16 1016.26 1016.20 1016.07 1016.11 1016.09 1015.92 1016.59 1016.57 1016.66 1016.70 1016.77 1016.85 1016.96 1016.89 1016.72 1016.55
1012.05 1011.45 1011.38 1011.54 1012.72 1013.89 1015.46 1017.07 1017.52 1017.76 1018.66 1017.88 1017.52 1017.20 1017.09 1017.08 1016.87 1016.81 1016.89 1017.26 1017.38 1017.31 1017.42 1017.39 1017.35 1017.23 1017.27 1017.11 1016.89 1016.61 1016.43 1016.42
1013.34 1012.71 1012.16 1012.75 1013.42 1014.25 1015.23 1016.22 1017.84 1018.40 1019.31 1018.76 1018.78 1018.44 1018.43 1018.57 1018.51 1018.39 1018.24 1018.16 1018.13 1017.95 1017.91 1017.74 1017.61 1017.43 1017.15 1016.99 1017.02 1016.97 1016.86 1016.60
1014.52 1014.35 1014.06 1013.94 1014.07 1014.46 1015.14 1016.63 1018.12 1018.58 1019.06 1019.48 1019.75 1019.84 1019.88 1020.06 1020.11 1020.06 1020.12 1020.17 1020.15 1020.06 1019.89 1019.69 1019.25 1018.68 1018.08 1017.59 1017.16 1016.94 1016.64 1016.39
1015.28 1014.93 1014.37 1014.28 1014.65 1014.92 1015.45 1016.28 1017.31 1018.89 1019.29 1019.89 1020.09 1020.43 1020.68 1020.81 1020.91 1021.12 1021.26 1021.05 1020.89 1020.70 1020.20 1019.73 1019.37 1018.80 1018.30 1017.81 1017.20 1016.74 1016.48 1016.04
1016.27 1015.59 1015.00 1015.00 1015.39 1015.51 1016.02 1016.95 1017.97 1018.91 1019.95 1020.20 1020.37 1020.82 1021.28 1021.68 1021.95 1022.15 1022.29 1022.14 1021.81 1021.31 1020.84 1020.32 1019.82 1019.18 1018.43 1017.74 1016.96 1016.20 1015.97 1015.39
1017.19 1016.53 1015.93 1016.20 1016.28 1016.37 1017.01 1017.70 1018.15 1019.63 1020.20 1020.47 1020.81 1021.29 1022.07 1022.61 1022.95 1023.21 1023.15 1022.95 1022.52 1021.95 1021.47 1020.93 1020.25 1019.51 1018.57 1017.66 1016.70 1016.11 1015.60 1014.97
1018.30 1017.42 1017.42 1017.75 1016.86 1017.23 1017.78 1019.02 1019.46 1020.05 1020.67 1021.02 1021.31 1021.72 1022.48 1022.97 1023.29 1023.46 1023.59 1023.44 1023.14 1022.78 1022.23 1021.65 1020.76 1019.73 1019.07 1018.13 1017.21 1016.36 1015.57 1014.97
1018.94 1018.83 1018.61 1018.30 1017.66 1017.52 1018.26 1020.17 1020.41 1020.85 1021.33 1021.51 1021.69 1022.27 1023.01 1023.37 1023.63 1023.77 1023.65 1023.33 1023.01 1022.68 1022.30 1021.69 1021.07 1020.14 1019.39 1018.58 1017.68 1016.80 1015.85 1015.11
1019.22 1019.23 1018.56 1017.45 1016.97 1017.15 1018.02 1019.92 1020.41 1021.07 1021.69 1022.07 1022.34 1022.75 1023.16 1023.62 1023.61 1023.39 1023.09 1022.73 1022.38 1022.00 1021.48 1020.79 1020.19 1019.62 1019.09 1018.30 1017.59 1016.80 1015.93 1015.11
1019.13 1019.00 1018.33 1017.23 1016.92 1017.21 1018.78 1019.83 1020.18 1021.10 1021.82 1022.33 1022.80 1022.87 1023.05 1023.31 1023.25 1023.11 1022.93 1022.58 1022.25 1021.81 1021.24 1020.55 1019.86 1019.27 1018.73 1017.96 1017.11 1016.24 1015.63 1014.93
1019.43 1019.24 1018.38 1017.28 1017.37 1017.92 1018.82 1019.62 1020.44 1021.30 1021.89 1022.53 1022.88 1023.23 1023.36 1023.32 1023.27 1022.97 1022.64 1022.27 1021.90 1021.61 1021.02 1020.24 1019.56 1018.88 1018.15 1017.19 1016.27 1015.59 1015.03 1014.21
1018.78 1018.46 1017.75 1017.60 1017.69 1017.78 1018.49 1019.52 1020.61 1021.32 1021.93 1022.52 1023.05 1023.35 1023.38 1023.36 1023.22 1022.90 1022.57 1022.28 1021.90 1021.67 1020.90 1019.79 1019.26 1018.51 1017.50 1016.44 1015.52 1014.53 1013.72 1012.85
1018.49 1018.39 1018.17 1018.04 1018.01 1018.31 1018.97 1019.69 1020.50 1021.21 1021.92 1022.41 1022.82 1023.07 1023.14 1023.30 1023.29 1022.99 1022.52 1022.17 1021.83 1021.53 1020.68 1019.77 1018.65 1018.04 1017.06 1015.88 1014.76 1013.66 1012.52 1011.36
1018.44 1018.41 1018.49 1018.29 1018.27 1018.55 1019.18 1019.76 1020.48 1021.24 1021.77 1022.28 1022.91 1023.04 1023.09 1023.11 1022.88 1022.39 1022.07 1021.59 1021.43 1021.39 1020.28 1018.91 1018.13 1017.32 1016.32 1015.33 1014.33 1013.00 1011.35 1010.07
1017.39 1017.18 1017.40 1017.52 1017.42 1018.33 1019.34 1019.94 1020.51 1021.12 1021.81 1021.91 1022.25 1022.54 1022.66 1022.57 1022.15 1021.98 1021.39 1020.81 1021.06 1020.46 1019.20 1018.31 1017.62 1016.67 1015.50 1014.40 1013.64 1012.25 1010.53 1009.06
1016.43 1016.34 1016.84 1017.05 1017.27 1018.03 1018.72 1019.38 1020.11 1020.61 1020.92 1021.27 1021.46 1021.81 1021.99 1021.91 1021.49 1021.07 1020.67 1020.21 1020.13 1019.15 1018.37 1017.73 1016.84 1016.28 1015.37 1014.50 1013.42 1011.90 1010.08 1008.59
Wind_Speed
1 2 5 3 2 4 8 4 6 4 2 3 11 8 10 10 12 10 5 3 4 6 6 6 6 6 6 6 4 5 4 6
6 6 4 4 5 3 5 3 5 3 4 2 7 6 10 9 6 3 1 5 6 7 7 4 5 6 7 5 4 2 3 3
4 6 3 6 4 7 7 4 6 4 3 6 7 7 10 11 9 7 8 9 8 8 6 4 2 5 4 4 2 3 3 4
2 4 4 4 3 4 6 1 2 5 3 6 6 10 13 12 12 9 10 8 8 8 6 6 6 5 2 3 5 5 6 5
9 8 7 7 5 5 5 3 1 6 4 5 6 8 8 10 9 9 9 10 9 10 8 8 8 7 6 5 4 4 4 6
8 6 3 3 5 3 5 5 5 1 10 4 4 6 7 8 8 7 8 7 6 7 6 5 6 7 7 8 7 7 7 6
2 2 2 1 4 3 1 4 6 7 8 4 4 6 5 6 7 8 7 7 7 7 8 8 8 9 7 7 7 7 8 7
4 6 6 4 9 10 7 6 10 13 7 4 3 6 7 7 6 6 6 8 9 10 11 11 10 11 12 13 14 11 9 9
2 4 4 4 6 3 6 8 10 9 5 3 3 5 4 5 6 5 6 8 10 11 12 13 15 15 16 16 14 13 14 11
1 5 2 4 7 13 16 10 10 9 5 3 1 2 6 5 5 7 7 9 9 9 10 12 16 13 12 15 15 13 10 8
4 2 1 4 4 2 5 2 2 6 5 2 3 5 5 4 4 4 5 7 7 7 9 10 13 13 10 12 13 14 14 13
2 3 5 6 3 6 6 2 6 6 6 5 2 2 4 1 3 6 8 8 9 10 10 10 9 10 10 13 13 14 14 14
3 2 4 5 3 4 4 8 7 6 5 5 4 4 3 6 5 4 5 8 8 9 10 12 12 12 10 11 13 13 12 15
3 3 5 4 3 6 7 3 7 6 6 6 5 4 3 7 7 8 8 7 8 8 10 11 11 11 16 15 14 12 13 15
7 7 3 2 4 0 6 7 6 6 5 6 6 6 7 6 8 8 8 7 7 6 11 14 13 13 16 15 15 15 15 16
3 2 3 2 1 4 3 4 6 6 7 7 6 7 7 7 7 8 7 9 7 9 15 16 13 14 14 15 16 16 16 18
1 3 3 5 6 6 5 6 6 5 6 8 7 7 8 7 8 9 8 8 5 9 13 14 13 14 14 15 15 16 18 16
6 8 7 6 11 9 10 10 9 10 7 7 8 8 6 8 8 7 10 10 6 11 10 11 11 12 13 13 15 17 16 14
3 3 4 2 6 9 11 10 9 9 7 7 8 8 6 6 8 11 13 11 8 12 10 10 11 10 13 13 16 21 21 19
Wind_Direction
50 82 117 183 63 177 103 14 67 316 334 356 41 45 104 126 154 193 230 191 151 125 125 110 89 77 95 103 66 22 295 240
302 42 33 106 156 50 10 128 106 322 38 329 13 14 85 96 106 149 126 183 156 129 125 103 130 101 94 80 59 32 51 22
31 17 319 353 22 52 108 97 141 120 311 359 353 7 57 49 46 43 50 51 52 87 120 148 127 77 81 84 60 5 350 332
154 312 284 99 83 107 111 233 73 119 266 6 60 71 68 56 45 40 51 51 51 46 47 48 37 24 10 344 348 340 329 330
356 351 1 44 6 96 101 84 19 113 203 83 23 57 63 65 29 23 37 38 26 22 12 1 349 339 330 323 296 270 278 308
178 203 198 353 349 72 101 102 149 191 134 110 64 80 66 64 54 54 47 45 30 15 352 328 303 299 295 293 283 280 281 271
87 335 92 212 12 13 92 159 124 180 119 133 98 85 74 80 62 47 26 14 358 340 327 320 318 313 293 266 258 256 260 266
6 356 13 41 37 67 51 100 70 112 96 144 110 113 68 52 42 28 9 351 341 334 329 326 324 314 309 303 301 299 276 262
278 346 29 17 354 67 85 56 123 138 163 135 53 84 71 51 34 6 344 340 338 338 335 331 325 318 312 312 306 290 278 270
194 19 40 316 79 88 83 63 87 91 112 107 18 68 100 63 21 339 344 327 316 309 307 317 311 314 328 322 319 317 303 289
115 126 75 146 211 197 126 215 191 140 150 170 280 149 202 61 13 299 286 280 286 300 304 304 301 301 310 309 309 311 306 303
110 140 196 219 209 135 124 275 202 169 173 189 222 354 231 13 327 310 306 308 314 320 307 300 294 294 294 297 299 295 298 298
137 165 288 242 225 106 102 242 170 172 175 180 184 204 302 323 305 280 282 295 308 306 306 304 307 305 283 286 283 284 289 293
87 89 271 165 66 158 198 73 149 170 173 173 168 191 248 271 272 282 284 291 292 298 304 302 303 309 307 297 286 284 280 278
162 210 252 317 236 39 139 148 175 159 172 172 171 208 212 250 263 276 279 289 297 297 297 302 310 306 307 300 298 292 288 277
83 224 175 198 88 138 141 141 149 158 166 174 188 202 227 249 272 271 278 286 293 308 302 294 304 313 303 301 303 302 295 287
264 275 13 279 232 175 153 137 134 151 170 190 187 216 222 241 253 264 272 287 288 288 284 309 313 306 305 305 310 315 308 299
219 207 175 218 208 158 157 178 180 167 189 203 195 222 223 248 260 267 277 279 296 258 273 304 306 305 309 327 328 327 321 315
227 195 182 10 170 167 177 178 186 183 199 198 224 219 228 243 249 275 278 280 256 253 253 270 276 291 299 311 329 332 327 328